| time (UTC) | temp F | wind direction | speed MPH | gust MPH | rain 1hr in | rain 24hr in | rain mn in | humidity % | barometer mb |
| 20260901104517 | 65 | 272 | 9.0 | 37.0 | 0.00 | 0.00 | 0.00 | 52 | 1007.9 |
| 20260901103516 | 65 | 286 | 15.0 | 34.0 | 0.00 | 0.00 | 0.00 | 51 | 1007.9 |
| 20260901102515 | 65 | 293 | 13.0 | 33.0 | 0.00 | 0.00 | 0.00 | 52 | 1007.8 |
| 20260901101515 | 66 | 261 | 12.0 | 37.0 | 0.00 | 0.00 | 0.00 | 50 | 1007.8 |
| 20260901100535 | 66 | 259 | 8.0 | 36.0 | 0.00 | 0.00 | 0.00 | 50 | 1007.7 |
| 20260901095517 | 67 | 279 | 10.0 | 30.0 | 0.00 | 0.00 | 0.00 | 48 | 1007.7 |
| 20260901094517 | 67 | 268 | 17.0 | 33.0 | 0.00 | 0.00 | 0.00 | 48 | 1007.6 |
| 20260901093536 | 67 | 278 | 14.0 | 32.0 | 0.00 | 0.00 | 0.00 | 49 | 1007.7 |
| 20260901092516 | 68 | 276 | 15.0 | 39.0 | 0.00 | 0.00 | 0.00 | 47 | 1007.6 |
| 20260901091515 | 68 | 276 | 17.0 | 29.0 | 0.00 | 0.00 | 0.00 | 46 | 1007.4 |
| 20260901090515 | 68 | 271 | 12.0 | 34.0 | 0.00 | 0.00 | 0.00 | 47 | 1007.3 |
| 20260901085517 | 69 | 265 | 16.0 | 36.0 | 0.00 | 0.00 | 0.00 | 45 | 1007.5 |
| 20260901084517 | 69 | 287 | 14.0 | 25.0 | 0.00 | 0.00 | 0.00 | 45 | 1007.4 |
| 20260901083517 | 70 | 288 | 8.0 | 28.0 | 0.00 | 0.00 | 0.00 | 45 | 1007.6 |
| 20260901082516 | 70 | 272 | 11.0 | 25.0 | 0.00 | 0.00 | 0.00 | 44 | 1007.6 |
| 20260901081536 | 70 | 287 | 10.0 | 28.0 | 0.00 | 0.00 | 0.00 | 43 | 1007.7 |
| 20260901080515 | 71 | 262 | 6.0 | 26.0 | 0.00 | 0.00 | 0.00 | 43 | 1007.7 |
| 20260901075515 | 70 | 276 | 11.0 | 27.0 | 0.00 | 0.00 | 0.00 | 42 | 1007.5 |
| 20260901074518 | 69 | 268 | 12.0 | 24.0 | 0.00 | 0.00 | 0.00 | 43 | 1007.5 |
| 20260901073517 | 68 | 252 | 7.0 | 13.0 | 0.00 | 0.00 | 0.00 | 46 | 1007.5 |
| 20260901072516 | 67 | 252 | 4.0 | 11.0 | 0.00 | 0.00 | 0.00 | 45 | 1007.5 |
| 20260901071516 | 67 | 229 | 6.0 | 14.0 | 0.00 | 0.00 | 0.00 | 44 | 1007.4 |
| 20260901070515 | 66 | 289 | 2.0 | 6.0 | 0.00 | 0.00 | 0.00 | 46 | 1007.4 |
| 20260901065535 | 67 | 66 | 2.0 | 4.0 | 0.00 | 0.00 | 0.00 | 46 | 1007.4 |
| 20260901064515 | 68 | 63 | 1.0 | 4.0 | 0.00 | 0.00 | 0.00 | 46 | 1007.4 |
| 20260901063517 | 69 | 248 | 2.0 | 6.0 | 0.00 | 0.00 | 0.00 | 42 | 1007.4 |
| 20260901062517 | 69 | 270 | 4.0 | 6.0 | 0.00 | 0.00 | 0.00 | 41 | 1007.5 |
| 20260901061517 | 69 | 320 | 3.0 | 6.0 | 0.00 | 0.00 | 0.00 | 40 | 1007.6 |
| 20260901060516 | 68 | 286 | 2.0 | 5.0 | 0.00 | 0.00 | 0.00 | 42 | 1007.5 |
| 20260901055515 | 68 | 186 | 1.0 | 3.0 | 0.00 | 0.00 | 0.00 | 42 | 1007.5 |
| 20260901054515 | 68 | 194 | 1.0 | 6.0 | 0.00 | 0.00 | 0.00 | 41 | 1007.5 |
| 20260901053558 | 68 | 151 | 2.0 | 3.0 | 0.00 | 0.00 | 0.00 | 42 | 1007.5 |
| 20260901052520 | 70 | 181 | 1.0 | 3.0 | 0.00 | 0.00 | 0.00 | 38 | 1007.4 |
| 20260901051517 | 72 | 237 | 2.0 | 6.0 | 0.00 | 0.00 | 0.00 | 36 | 1007.3 |
| 20260901050537 | 71 | 248 | 2.0 | 3.0 | 0.00 | 0.00 | 0.00 | 37 | 1007.4 |
| 20260901045515 | 71 | 166 | 1.0 | 2.0 | 0.00 | 0.00 | 0.00 | 35 | 1007.4 |
| 20260901044515 | 73 | 162 | 1.0 | 3.0 | 0.00 | 0.00 | 0.00 | 34 | 1007.4 |
| 20260901043534 | 73 | 265 | 1.0 | 4.0 | 0.00 | 0.00 | 0.00 | 32 | 1007.3 |
| 20260901042537 | 74 | 237 | 2.0 | 4.0 | 0.00 | 0.00 | 0.00 | 32 | 1007.1 |
| 20260901041537 | 75 | 338 | 1.0 | 8.0 | 0.00 | 0.00 | 0.00 | 30 | 1007.0 |
| 20260901040516 | 76 | 270 | 4.0 | 5.0 | 0.00 | 0.00 | 0.00 | 29 | 1007.0 |
| 20260901035517 | 77 | 289 | 2.0 | 3.0 | 0.00 | 0.00 | 0.00 | 27 | 1006.8 |
| 20260901035037 | 77 | 244 | 3.0 | 7.0 | 0.00 | 0.00 | 0.00 | 27 | 1005.1 |
| 20260901034017 | 78 | 43 | 1.0 | 10.0 | 0.00 | 0.00 | 0.00 | 25 | 1005.0 |
| 20260901033016 | 79 | 271 | 7.0 | 12.0 | 0.00 | 0.00 | 0.00 | 24 | 1004.8 |
| 20260901032016 | 78 | 259 | 8.0 | 9.0 | 0.00 | 0.00 | 0.00 | 23 | 1004.7 |
| 20260901031736 | 78 | 272 | 5.0 | 9.0 | 0.00 | 0.00 | 0.00 | 23 | 1004.7 |
| 20260901031417 | 78 | 311 | 1.0 | 1.0 | 0.00 | 0.00 | 0.00 | 22 | 1004.7 |
| 20260901030815 | 79 | 276 | 8.0 | 11.0 | 0.00 | 0.00 | 0.00 | 22 | 1004.6 |
| 20260901025835 | 78 | 266 | 7.0 | 12.0 | 0.00 | 0.00 | 0.00 | 21 | 1004.5 |
| 20260901023817 | 76 | 145 | 2.0 | 2.0 | 0.00 | 0.00 | 0.00 | 24 | 1004.3 |
| 20260901022817 | 77 | 183 | 2.0 | 3.0 | 0.00 | 0.00 | 0.00 | 21 | 1004.2 |
| 20260901021816 | 78 | 170 | 2.0 | 2.0 | 0.00 | 0.00 | 0.00 | 21 | 1004.2 |
| 20260901020815 | 78 | 166 | 2.0 | 3.0 | 0.00 | 0.00 | 0.00 | 22 | 1004.2 |
| 20260901020016 | 78 | 156 | 2.0 | 2.0 | 0.00 | 0.00 | 0.00 | 21 | 1004.2 |
| 20260901015015 | 80 | 165 | 2.0 | 2.0 | 0.00 | 0.00 | 0.00 | 19 | 1004.2 |
| 20260901014015 | 81 | 165 | 2.0 | 2.0 | 0.00 | 0.00 | 0.00 | 18 | 1004.3 |
| 20260901013117 | 84 | 165 | 1.0 | 2.0 | 0.00 | 0.00 | 0.00 | 17 | 1004.3 |
| 20260901012116 | 86 | 264 | 2.0 | 4.0 | 0.00 | 0.00 | 0.00 | 15 | 1004.4 |
| 20260901011116 | 89 | 264 | 3.0 | 4.0 | 0.00 | 0.00 | 0.00 | 15 | 1004.4 |
| 20260901010917 | 89 | 192 | 1.0 | 1.0 | 0.00 | 0.00 | 0.00 | 16 | 1004.4 |
| 20260831235306 | 89 | 314 | 1.0 | 2.0 | 0.00 | 0.00 | 0.00 | 15 | 1006.0 |
| 20260831234804 | 89 | 348 | 1.0 | 2.0 | 0.00 | 0.00 | 0.00 | 17 | 1006.1 |
| 20260831234303 | 89 | 10 | 1.0 | 2.0 | 0.00 | 0.00 | 0.00 | 16 | 1006.1 |
| 20260831233803 | 88 | 339 | 1.0 | 3.0 | 0.00 | 0.00 | 0.00 | 17 | 1006.3 |
| 20260831232803 | 88 | 12 | 1.0 | 3.0 | 0.00 | 0.00 | 0.00 | 17 | 1006.4 |
| 20260831232305 | 88 | 61 | 2.0 | 3.0 | 0.00 | 0.00 | 0.00 | 16 | 1006.3 |
| 20260831231803 | 88 | 328 | 1.0 | 2.0 | 0.00 | 0.00 | 0.00 | 18 | 1006.4 |
| 20260831230803 | 88 | 5 | 1.0 | 2.0 | 0.00 | 0.00 | 0.00 | 17 | 1006.5 |
| 20260831230303 | 88 | 8 | 1.0 | 2.0 | 0.00 | 0.00 | 0.00 | 17 | 1006.6 |
| 20260831225803 | 88 | 17 | 1.0 | 2.0 | 0.00 | 0.00 | 0.00 | 18 | 1006.8 |
| 20260831225306 | 88 | 352 | 1.0 | 2.0 | 0.00 | 0.00 | 0.00 | 18 | 1006.8 |
| 20260831224803 | 88 | 16 | 1.0 | 2.0 | 0.00 | 0.00 | 0.00 | 18 | 1006.9 |
| 20260831224304 | 87 | 9 | 1.0 | 2.0 | 0.00 | 0.00 | 0.00 | 18 | 1007.1 |
| 20260831223803 | 86 | 53 | 1.0 | 2.0 | 0.00 | 0.00 | 0.00 | 19 | 1007.1 |
| 20260831223707 | 85 | 35 | 1.0 | 3.0 | 0.00 | 0.00 | 0.00 | 19 | 1007.2 |
| 20260831223303 | 86 | 30 | 1.0 | 5.0 | 0.00 | 0.00 | 0.00 | 19 | 1007.2 |
| 20260831222803 | 87 | 26 | 1.0 | 3.0 | 0.00 | 0.00 | 0.00 | 18 | 1007.3 |
| 20260831222306 | 85 | 339 | 1.0 | 5.0 | 0.00 | 0.00 | 0.00 | 19 | 1007.3 |
| 20260831221803 | 85 | 353 | 2.0 | 5.0 | 0.00 | 0.00 | 0.00 | 19 | 1007.4 |
| 20260831220803 | 86 | 311 | 1.0 | 7.0 | 0.00 | 0.00 | 0.00 | 19 | 1007.5 |
| 20260831173239 | 66 | 42 | 1.0 | 4.0 | 0.00 | 0.00 | 0.00 | 59 | 1011.4 |
| 20260831165305 | 63 | 66 | 1.0 | 3.0 | 0.00 | 0.00 | 0.00 | 54 | 1012.8 |
| 20260831164804 | 62 | 64 | 2.0 | 3.0 | 0.00 | 0.00 | 0.00 | 55 | 1012.9 |
| 20260831164304 | 62 | 13 | 2.0 | 3.0 | 0.00 | 0.00 | 0.00 | 54 | 1012.9 |
| 20260831163808 | 62 | 59 | 2.0 | 3.0 | 0.00 | 0.00 | 0.00 | 52 | 1013.0 |
| 20260831163303 | 63 | 19 | 1.0 | 3.0 | 0.00 | 0.00 | 0.00 | 52 | 1013.0 |
| 20260831162805 | 63 | 19 | 1.0 | 2.0 | 0.00 | 0.00 | 0.00 | 52 | 1013.1 |
| 20260831162306 | 63 | 83 | 2.0 | 3.0 | 0.00 | 0.00 | 0.00 | 51 | 1013.1 |
| 20260831161804 | 62 | 115 | 1.0 | 3.0 | 0.00 | 0.00 | 0.00 | 52 | 1013.2 |
| 20260831161304 | 62 | 69 | 2.0 | 3.0 | 0.00 | 0.00 | 0.00 | 52 | 1013.2 |
| 20260831160804 | 62 | 144 | 1.0 | 3.0 | 0.00 | 0.00 | 0.00 | 52 | 1013.3 |
| 20260831160304 | 61 | 85 | 1.0 | 2.0 | 0.00 | 0.00 | 0.00 | 54 | 1013.3 |
| 20260831155804 | 61 | 60 | 2.0 | 3.0 | 0.00 | 0.00 | 0.00 | 53 | 1013.4 |
| 20260831155306 | 60 | 301 | 1.0 | 3.0 | 0.00 | 0.00 | 0.00 | 55 | 1013.4 |
| 20260831154805 | 60 | 130 | 1.0 | 3.0 | 0.00 | 0.00 | 0.00 | 56 | 1013.4 |
| 20260831154304 | 59 | 131 | 2.0 | 3.0 | 0.00 | 0.00 | 0.00 | 56 | 1013.5 |
| 20260831153804 | 59 | 137 | 2.0 | 3.0 | 0.00 | 0.00 | 0.00 | 57 | 1013.5 |
| 20260831153305 | 58 | 105 | 2.0 | 5.0 | 0.00 | 0.00 | 0.00 | 59 | 1013.4 |
| 20260831152804 | 58 | 102 | 2.0 | 3.0 | 0.00 | 0.00 | 0.00 | 60 | 1013.5 |
| 20260831152306 | 58 | 87 | 2.0 | 3.0 | 0.00 | 0.00 | 0.00 | 61 | 1013.4 |
| 20260831151804 | 57 | 80 | 2.0 | 2.0 | 0.00 | 0.00 | 0.00 | 61 | 1013.4 |
| 20260831151304 | 57 | 131 | 2.0 | 5.0 | 0.00 | 0.00 | 0.00 | 62 | 1013.5 |
| 20260831150804 | 56 | 108 | 1.0 | 3.0 | 0.00 | 0.00 | 0.00 | 64 | 1013.5 |
| 20260831145804 | 55 | 147 | 2.0 | 3.0 | 0.00 | 0.00 | 0.00 | 67 | 1013.4 |
| 20260831145306 | 54 | 137 | 2.0 | 2.0 | 0.00 | 0.00 | 0.00 | 67 | 1013.4 |
| 20260831144805 | 53 | 151 | 2.0 | 5.0 | 0.00 | 0.00 | 0.00 | 69 | 1013.4 |
| 20260831144304 | 52 | 164 | 3.0 | 5.0 | 0.00 | 0.00 | 0.00 | 70 | 1013.4 |
| 20260831143804 | 52 | 164 | 2.0 | 3.0 | 0.00 | 0.00 | 0.00 | 73 | 1013.5 |
| 20260831143304 | 51 | 166 | 2.0 | 3.0 | 0.00 | 0.00 | 0.00 | 74 | 1013.5 |
| 20260831142306 | 50 | 154 | 2.0 | 3.0 | 0.00 | 0.00 | 0.00 | 74 | 1013.5 |
| 20260831141804 | 50 | 147 | 2.0 | 3.0 | 0.00 | 0.00 | 0.00 | 74 | 1013.5 |
| 20260831141304 | 50 | 149 | 2.0 | 3.0 | 0.00 | 0.00 | 0.00 | 74 | 1013.5 |
| 20260831140804 | 50 | 140 | 2.0 | 5.0 | 0.00 | 0.00 | 0.00 | 75 | 1013.4 |
| 20260831140304 | 49 | 132 | 3.0 | 3.0 | 0.00 | 0.00 | 0.00 | 76 | 1013.4 |
| 20260831134804 | 50 | 144 | 3.0 | 3.0 | 0.00 | 0.00 | 0.00 | 75 | 1013.3 |
| 20260831134304 | 50 | 156 | 2.0 | 3.0 | 0.00 | 0.00 | 0.00 | 75 | 1013.2 |
| 20260831133803 | 50 | 133 | 2.0 | 2.0 | 0.00 | 0.00 | 0.00 | 74 | 1013.2 |
| 20260831132804 | 51 | 155 | 2.0 | 3.0 | 0.00 | 0.00 | 0.00 | 74 | 1013.2 |
| 20260831132306 | 51 | 149 | 2.0 | 3.0 | 0.00 | 0.00 | 0.00 | 72 | 1013.2 |
| 20260831131304 | 52 | 156 | 2.0 | 3.0 | 0.00 | 0.00 | 0.00 | 71 | 1013.2 |
| 20260831130804 | 52 | 164 | 2.0 | 2.0 | 0.00 | 0.00 | 0.00 | 71 | 1013.2 |
| 20260831130304 | 52 | 133 | 2.0 | 3.0 | 0.00 | 0.00 | 0.00 | 72 | 1013.2 |
| 20260831125306 | 52 | 161 | 2.0 | 3.0 | 0.00 | 0.00 | 0.00 | 72 | 1013.3 |
| 20260831124804 | 52 | 160 | 2.0 | 2.0 | 0.00 | 0.00 | 0.00 | 71 | 1013.3 |
| 20260831124305 | 52 | 167 | 2.0 | 3.0 | 0.00 | 0.00 | 0.00 | 72 | 1013.3 |
| 20260831123804 | 52 | 132 | 2.0 | 3.0 | 0.00 | 0.00 | 0.00 | 71 | 1013.2 |
| 20260831123304 | 53 | 158 | 2.0 | 3.0 | 0.00 | 0.00 | 0.00 | 70 | 1013.2 |
| 20260831122804 | 53 | 164 | 2.0 | 3.0 | 0.00 | 0.00 | 0.00 | 71 | 1013.2 |
| 20260831121804 | 52 | 144 | 2.0 | 3.0 | 0.00 | 0.00 | 0.00 | 71 | 1013.1 |
| 20260831121304 | 52 | 154 | 2.0 | 3.0 | 0.00 | 0.00 | 0.00 | 71 | 1013.2 |
| 20260831120804 | 52 | 145 | 2.0 | 3.0 | 0.00 | 0.00 | 0.00 | 72 | 1013.1 |
| 20260831120304 | 52 | 148 | 2.0 | 3.0 | 0.00 | 0.00 | 0.00 | 71 | 1013.1 |
| 20260831115804 | 53 | 142 | 2.0 | 3.0 | 0.00 | 0.00 | 0.00 | 71 | 1013.2 |
| 20260831114804 | 53 | 154 | 2.0 | 3.0 | 0.00 | 0.00 | 0.00 | 71 | 1013.2 |
| 20260831113805 | 53 | 158 | 2.0 | 3.0 | 0.00 | 0.00 | 0.00 | 70 | 1013.2 |
| 20260831113304 | 53 | 137 | 2.0 | 3.0 | 0.00 | 0.00 | 0.00 | 70 | 1013.2 |
| 20260831111804 | 54 | 143 | 2.0 | 3.0 | 0.00 | 0.00 | 0.00 | 69 | 1013.2 |
| 20260831111304 | 53 | 168 | 2.0 | 3.0 | 0.00 | 0.00 | 0.00 | 70 | 1013.2 |
| 20260831110804 | 53 | 163 | 2.0 | 3.0 | 0.00 | 0.00 | 0.00 | 70 | 1013.2 |
| 20260831110303 | 53 | 172 | 2.0 | 3.0 | 0.00 | 0.00 | 0.00 | 71 | 1013.2 |
| 20260831105804 | 53 | 157 | 2.0 | 3.0 | 0.00 | 0.00 | 0.00 | 70 | 1013.2 |
| 20260831105306 | 54 | 154 | 2.0 | 3.0 | 0.00 | 0.00 | 0.00 | 69 | 1013.2 |
| 20260831104804 | 54 | 171 | 2.0 | 3.0 | 0.00 | 0.00 | 0.00 | 69 | 1013.3 |